Content
SEND FEEDBACK

Daily
Averages
Monthly
Summary
United States of America

MANGILAO, GUAM


Home > North America > United States > Guam
Elevation: 60 feet     Latitude: 13 27N     Longitude: 144 49E

WEATHER
 
SELECT A DAY
Number of Records: 342,637;   Date Range: 1/1/95 - 9/20/14
 
SHARE

PRINT THIS DATA

[ ← Previous Day ]
WEATHER ALMANAC - JANUARY 20, 2013
[ Next Day → ]
[ °C ]   °F
Weather ElementAverageHighLow
Temperature76.8 °F79 °F (1:55 pm)73.4 °F (7:31 am)
Dewpoint73.8 °F75.2 °F (9:18 am)68 °F (7:31 am)
Humidity90.5 %100 % (11:22 am)78 % (2:40 am)
Barometer29.89 in29.97 in (9:22 am)29.83 in (3:23 pm)
Wind Speed23 mph34.5 mph (3:03 pm)
Wind Gust42.6 mph (2:28 pm)
Weather ElementAverage
Visibility7.5 mi
Wind DirectionNNE (37.7 °)

Weather ElementTotal
Precipitation0.48 in
Cooling Degree Days11.2 (Base 65)
Growing Degree Days26.2 (Base 50)
Averaged from 220 records on January 20, 2013
WEATHER CONDITIONS BREAKOUT
WIND DIRECTION BREAKOUT
WEATHER BY HOUR - JANUARY 20, 2013
[ °C ]   °F
Local TimeTemperatureDewpointHumidityBarometerVisibilityWind DirectionWind SpeedGust SpeedPrecipitationEventsConditions
12:09 AM77.0 °F73.4 °F89 %29.88 in10.0 miNE (40°)15.0 mph25.3 mphMostly Cloudy
12:19 AM77.0 °F73.4 °F89 %29.88 in10.0 miNE (50°)13.8 mphMostly Cloudy
12:20 AM77.0 °F73.4 °F89 %29.88 in10.0 miNE (40°)16.1 mphMostly Cloudy
12:29 AM77.0 °F73.4 °F89 %29.88 in10.0 miNE (40°)21.9 mph27.6 mphMostly Cloudy
12:30 AM77.0 °F73.4 °F89 %29.88 in10.0 miNE (40°)20.7 mph27.6 mphMostly Cloudy
12:52 AM77.0 °F73.4 °F89 %29.88 in10.0 miNE (50°)20.7 mphMostly Cloudy
12:55 AM77.4 °F73.2 °F87 %29.88 in10.0 miNE (50°)17.3 mph0.01 inMostly Cloudy
1:05 AM77.0 °F73.4 °F89 %29.87 in10.0 miNE (50°)18.4 mphRainLight Rain
1:14 AM77.0 °F73.4 °F89 %29.87 in10.0 miNE (50°)19.6 mphMostly Cloudy
1:21 AM77.0 °F73.4 °F89 %29.87 in10.0 miNE (50°)17.3 mphScattered Clouds
1:22 AM77.0 °F73.4 °F89 %29.87 in10.0 miNE (50°)17.3 mphMostly Cloudy
1:39 AM77.0 °F73.4 °F89 %29.87 in10.0 miNE (50°)20.7 mph25.3 mphScattered Clouds
1:49 AM77.0 °F73.4 °F89 %29.87 in10.0 miNE (50°)16.1 mphMostly Cloudy
1:55 AM77.9 °F73.2 °F85 %29.87 in10.0 miNE (50°)16.1 mph0.00 inMostly Cloudy
2:07 AM78.8 °F73.4 °F83 %29.87 in10.0 miNE (50°)18.4 mph25.3 mphMostly Cloudy
2:31 AM78.8 °F73.4 °F83 %29.86 in10.0 miNE (50°)17.3 mphMostly Cloudy
2:34 AM77.0 °F71.6 °F83 %29.86 in10.0 miNE (50°)17.3 mph25.3 mphMostly Cloudy
2:40 AM78.8 °F71.6 °F78 %29.86 in10.0 miNE (50°)17.3 mph25.3 mphMostly Cloudy
2:46 AM77.0 °F71.6 °F83 %29.86 in9.0 miENE (60°)17.3 mph25.3 mphRainLight Rain
2:55 AM75.7 °F71.8 °F87 %29.86 in8.0 miENE (60°)19.6 mph0.00 inRainLight Rain
3:02 AM75.2 °F71.6 °F89 %29.85 in10.0 miENE (60°)20.7 mphMostly Cloudy
3:18 AM77.0 °F71.6 °F83 %29.85 in10.0 miNE (50°)17.3 mphScattered Clouds
3:55 AM75.4 °F69.8 °F83 %29.86 in10.0 miNE (40°)19.6 mph0.00 inPartly Cloudy
4:22 AM77.0 °F71.6 °F83 %29.86 in10.0 miNE (40°)19.6 mphMostly Cloudy
4:24 AM77.0 °F71.6 °F83 %29.86 in10.0 miNE (40°)19.6 mphScattered Clouds
4:36 AM75.2 °F69.8 °F83 %29.87 in10.0 miNNE (30°)17.3 mphMostly Cloudy
4:55 AM77.2 °F72.1 °F84 %29.87 in10.0 miNE (40°)19.6 mph26.5 mphMostly Cloudy
5:40 AM78.8 °F71.6 °F78 %29.88 in10.0 miNNE (30°)17.3 mph24.2 mphOvercast
5:43 AM78.8 °F71.6 °F78 %29.88 in10.0 miNNE (30°)19.6 mph24.2 mphOvercast
5:55 AM75.6 °F70.9 °F85 %29.88 in10.0 miNNE (20°)17.3 mphOvercast
6:08 AM78.8 °F71.6 °F78 %29.88 in10.0 miNNE (20°)17.3 mphOvercast
6:11 AM78.8 °F71.6 °F78 %29.88 in10.0 miNNE (30°)15.0 mphOvercast
6:17 AM78.8 °F71.6 °F78 %29.89 in10.0 miNNE (30°)17.3 mphOvercast
6:33 AM78.8 °F73.4 °F83 %29.89 in10.0 miNNE (20°)18.4 mph23.0 mphMostly Cloudy
6:42 AM78.8 °F73.4 °F83 %29.89 in10.0 miNNE (20°)20.7 mphMostly Cloudy
6:48 AM78.8 °F73.4 °F83 %29.90 in10.0 miNNE (20°)19.6 mph28.8 mphMostly Cloudy
6:55 AM76.6 °F71.8 °F85 %29.91 in10.0 miNNE (20°)21.9 mphOvercast
7:04 AM78.8 °F73.4 °F83 %29.91 in10.0 miNNE (20°)20.7 mphOvercast
7:06 AM78.8 °F73.4 °F83 %29.91 in10.0 miNNE (20°)21.9 mphOvercast
7:31 AM73.4 °F68.0 °F83 %29.92 in10.0 miNNE (20°)23.0 mph32.2 mphRainLight Rain
7:40 AM73.4 °F69.8 °F88 %29.93 in10.0 miNorth (10°)21.9 mph32.2 mphOvercast
7:54 AM78.8 °F71.6 °F78 %29.93 in10.0 miNNE (20°)20.7 mph31.1 mphOvercast
7:55 AM78.3 °F72.3 °F82 %29.93 in10.0 miNNE (20°)24.2 mph31.1 mph0.00 inOvercast
8:09 AM78.8 °F73.4 °F83 %29.94 in10.0 miNNE (20°)20.7 mph26.5 mphLight Drizzle
8:29 AM78.8 °F73.4 °F83 %29.95 in10.0 miNNE (20°)20.7 mph28.8 mphOvercast
8:35 AM77.0 °F73.4 °F89 %29.95 in5.0 miNNE (30°)23.0 mph33.4 mphRainLight Rain
8:38 AM77.0 °F73.4 °F89 %29.95 in4.0 miNNE (20°)17.3 mph33.4 mphRainRain
8:41 AM77.0 °F73.4 °F89 %29.96 in2.5 miNNE (20°)19.6 mph33.4 mphRainHeavy Rain
8:42 AM77.0 °F73.4 °F89 %29.96 in2.5 miNNE (30°)19.6 mph33.4 mphRainHeavy Rain
8:45 AM77.0 °F73.4 °F89 %29.96 in3.0 miNE (40°)19.6 mph28.8 mphRainLight Rain
8:55 AM76.1 °F72.7 °F89 %29.96 in10.0 miNNE (30°)13.8 mph28.8 mph0.05 inOvercast
9:07 AM77.0 °F73.4 °F89 %29.96 in7.0 miNE (40°)21.9 mph28.8 mphRainLight Rain
9:09 AM77.0 °F73.4 °F89 %29.96 in4.0 miNNE (30°)18.4 mph28.8 mphRainRain
9:18 AM77.0 °F75.2 °F94 %29.96 in5.0 miNNE (30°)20.7 mph29.9 mphRainLight Rain
9:22 AM77.0 °F73.4 °F89 %29.97 in9.0 miNNE (30°)21.9 mph31.1 mphOvercast
9:23 AM77.0 °F73.4 °F89 %29.96 in10.0 miNNE (30°)23.0 mph31.1 mphOvercast
9:28 AM77.0 °F73.4 °F89 %29.97 in10.0 miNNE (30°)20.7 mph31.1 mphOvercast
9:30 AM77.0 °F73.4 °F89 %29.97 in10.0 miNNE (30°)20.7 mph31.1 mphOvercast
9:31 AM77.0 °F73.4 °F89 %29.97 in10.0 miNNE (30°)19.6 mph31.1 mphOvercast
9:39 AM77.0 °F71.6 °F83 %29.96 in9.0 miNNE (30°)20.7 mph27.6 mphRainHeavy Rain
9:51 AM75.2 °F73.4 °F94 %29.97 in4.0 miNE (40°)21.9 mph31.1 mphRainHeavy Rain
9:55 AM75.7 °F73.2 °F92 %29.97 in2.5 miNNE (30°)19.6 mph29.9 mph0.10 inRainHeavy Rain
9:58 AM75.2 °F73.4 °F94 %29.97 in2.0 miNE (40°)18.4 mph29.9 mphRainHeavy Rain
9:59 AM75.2 °F73.4 °F94 %29.97 in2.0 miNNE (30°)18.4 mph29.9 mphRainHeavy Rain
10:00 AM75.2 °F73.4 °F94 %29.97 in2.5 miNNE (30°)17.3 mph28.8 mphRainHeavy Rain
10:04 AM75.2 °F73.4 °F94 %29.96 in2.5 miNE (40°)20.7 mph25.3 mphRainHeavy Rain
10:05 AM75.2 °F73.4 °F94 %29.96 in2.5 miNE (40°)23.0 mphRainHeavy Rain
10:06 AM75.2 °F73.4 °F94 %29.96 in3.0 miNE (40°)23.0 mphRainHeavy Rain
10:10 AM75.2 °F73.4 °F94 %29.96 in4.0 miNE (40°)21.9 mph29.9 mphRainLight Rain
10:11 AM75.2 °F73.4 °F94 %29.96 in4.0 miNE (40°)21.9 mph29.9 mphRainLight Rain
10:20 AM75.2 °F73.4 °F94 %29.96 in7.0 miNNE (30°)17.3 mph28.8 mphOvercast
10:22 AM75.2 °F73.4 °F94 %29.96 in9.0 miNE (40°)18.4 mph28.8 mphLight Drizzle
10:23 AM75.2 °F73.4 °F94 %29.96 in10.0 miNNE (30°)20.7 mph24.2 mphOvercast
10:24 AM75.2 °F73.4 °F94 %29.96 in10.0 miNNE (30°)20.7 mphLight Drizzle
10:29 AM75.2 °F73.4 °F94 %29.96 in9.0 miNNE (30°)19.6 mph25.3 mphLight Drizzle
10:37 AM77.0 °F73.4 °F89 %29.96 in7.0 miNNE (30°)21.9 mph25.3 mphRainLight Rain
10:38 AM77.0 °F73.4 °F89 %29.96 in6.0 miNNE (30°)21.9 mph28.8 mphRainLight Rain
10:40 AM77.0 °F73.4 °F89 %29.96 in5.0 miNNE (30°)21.9 mph28.8 mphRainLight Rain
10:45 AM77.0 °F73.4 °F89 %29.96 in5.0 miNNE (30°)20.7 mph29.9 mphRainLight Rain
10:47 AM77.0 °F73.4 °F89 %29.96 in4.0 miNNE (30°)21.9 mph31.1 mphRainLight Rain
10:49 AM77.0 °F73.4 °F89 %29.96 in5.0 miNNE (30°)23.0 mph31.1 mphOvercast
10:50 AM77.0 °F73.4 °F89 %29.96 in5.0 miNNE (30°)24.2 mph31.1 mphRainLight Rain
10:51 AM77.0 °F73.4 °F89 %29.95 in5.0 miNNE (20°)25.3 mph31.1 mphRainLight Rain
10:54 AM75.2 °F73.4 °F94 %29.95 in5.0 miNorth (10°)20.7 mph31.1 mphOvercast
10:55 AM75.9 °F73.8 °F93 %29.95 in5.0 miNorth (10°)19.6 mph31.1 mph0.09 inOvercast
10:56 AM75.2 °F73.4 °F94 %29.95 in5.0 miNorth (10°)17.3 mph31.1 mphRainLight Rain
11:05 AM77.0 °F75.2 °F94 %29.94 in4.0 miNNE (30°)21.9 mph27.6 mphRainHeavy Rain
11:07 AM77.0 °F75.2 °F94 %29.95 in3.0 miNE (40°)28.8 mph38.0 mphRainLight Rain
11:08 AM77.0 °F75.2 °F94 %29.95 in3.0 miNE (40°)29.9 mph38.0 mphRainLight Rain
11:10 AM77.0 °F75.2 °F94 %29.95 in2.5 miNE (40°)27.6 mph38.0 mphRainLight Rain
11:12 AM75.2 °F73.4 °F94 %29.95 in3.0 miNE (40°)28.8 mph38.0 mphRainLight Rain
11:21 AM75.2 °F73.4 °F94 %29.94 in6.0 miNNE (20°)24.2 mph35.7 mphOvercast
11:22 AM75.2 °F75.2 °F100 %29.94 in6.0 miNNE (20°)23.0 mph35.7 mphRainLight Rain
11:24 AM75.2 °F75.2 °F100 %29.94 in5.0 miNNE (20°)25.3 mph35.7 mphRainLight Rain
11:48 AM75.2 °F73.4 °F94 %29.93 in6.0 miNNE (20°)23.0 mph31.1 mphRainLight Rain
11:51 AM75.2 °F73.4 °F94 %29.93 in9.0 miNNE (20°)21.9 mph31.1 mphRainLight Rain
11:53 AM75.2 °F73.4 °F94 %29.93 in8.0 miNNE (20°)21.9 mph28.8 mphOvercast
11:55 AM75.4 °F73.9 °F95 %29.92 in9.0 miNorth (10°)20.7 mph28.8 mph0.03 inOvercast
12:12 PM75.2 °F75.2 °F100 %29.92 in7.0 miNNE (20°)20.7 mph31.1 mphOvercast
12:24 PM77.0 °F75.2 °F94 %29.91 in8.0 miNNE (30°)23.0 mph28.8 mphOvercast
12:32 PM77.0 °F75.2 °F94 %29.91 in10.0 miNNE (30°)19.6 mph25.3 mphOvercast
12:43 PM77.0 °F73.4 °F89 %29.90 in10.0 miNNE (20°)23.0 mph32.2 mphOvercast
12:47 PM77.0 °F73.4 °F89 %29.90 in10.0 miNNE (30°)20.7 mph32.2 mphOvercast
12:54 PM77.0 °F75.2 °F94 %29.89 in10.0 miNNE (30°)20.7 mph27.6 mphOvercast
12:55 PM77.5 °F74.5 °F90 %29.89 in10.0 miNNE (30°)20.7 mph27.6 mphOvercast
1:19 PM78.8 °F75.2 °F89 %29.87 in9.0 miNNE (20°)23.0 mph29.9 mphRainLight Rain
1:29 PM78.8 °F75.2 °F89 %29.87 in10.0 miNNE (20°)24.2 mph31.1 mphOvercast
1:46 PM78.8 °F73.4 °F83 %29.86 in10.0 miNNE (30°)21.9 mph31.1 mphOvercast
1:55 PM79.0 °F74.5 °F86 %29.86 in10.0 miNNE (30°)21.9 mph29.9 mph0.00 inOvercast
2:28 PM78.8 °F75.2 °F89 %29.84 in7.0 miNNE (30°)24.2 mph42.6 mphOvercast
2:29 PM78.8 °F75.2 °F89 %29.84 in7.0 miNNE (30°)25.3 mph42.6 mphOvercast
2:30 PM78.8 °F75.2 °F89 %29.84 in7.0 miNE (40°)25.3 mph42.6 mphRainLight Rain
2:44 PM77.0 °F75.2 °F94 %29.84 in9.0 miNE (40°)25.3 mph32.2 mphOvercast
2:55 PM77.9 °F74.1 °F88 %29.84 in10.0 miNNE (30°)25.3 mph33.4 mph0.01 inOvercast
3:03 PM78.8 °F73.4 °F83 %29.84 in7.0 miNE (50°)34.5 mph39.1 mphOvercast
3:04 PM78.8 °F73.4 °F83 %29.84 in5.0 miNE (40°)33.4 mph39.1 mphRainLight Rain
3:07 PM77.0 °F73.4 °F89 %29.84 in2.5 miNE (40°)28.8 mph39.1 mphRainLight Rain
3:09 PM77.0 °F73.4 °F89 %29.84 in2.0 miNE (40°)33.4 mph41.4 mphRainRain
3:10 PM77.0 °F73.4 °F89 %29.84 in2.0 miNE (40°)31.1 mph41.4 mphRainRain
3:11 PM77.0 °F73.4 °F89 %29.84 in1.8 miNE (40°)31.1 mph41.4 mphRainRain
3:13 PM77.0 °F73.4 °F89 %29.84 in1.8 miNE (40°)27.6 mph41.4 mphRainHeavy Rain
3:15 PM77.0 °F73.4 °F89 %29.84 in2.0 miNE (40°)27.6 mph41.4 mphRainLight Rain
3:16 PM77.0 °F73.4 °F89 %29.84 in2.5 miNE (40°)25.3 mph41.4 mphRainLight Rain
3:18 PM77.0 °F73.4 °F89 %29.84 in3.0 miNE (40°)26.5 mph41.4 mphRainLight Rain
3:23 PM77.0 °F75.2 °F94 %29.83 in7.0 miNE (40°)23.0 mph34.5 mphRainLight Rain
3:28 PM77.0 °F75.2 °F94 %29.83 in10.0 miNNE (30°)23.0 mph29.9 mphRainLight Rain
3:29 PM77.0 °F75.2 °F94 %29.83 in10.0 miNNE (30°)24.2 mph29.9 mphOvercast
3:34 PM77.0 °F75.2 °F94 %29.83 in10.0 miNE (50°)23.0 mph29.9 mphOvercast
3:36 PM77.0 °F75.2 °F94 %29.83 in10.0 miNE (40°)26.5 mph32.2 mphOvercast
3:45 PM78.8 °F75.2 °F89 %29.83 in10.0 miNE (40°)26.5 mph32.2 mphMostly Cloudy
3:53 PM78.8 °F75.2 °F89 %29.83 in5.0 miNE (40°)28.8 mph35.7 mphRainLight Rain
3:55 PM77.9 °F74.8 °F90 %29.83 in4.0 miNE (40°)27.6 mph35.7 mph0.04 inRainLight Rain
3:57 PM77.0 °F75.2 °F94 %29.83 in3.0 miNE (40°)25.3 mph35.7 mphRainLight Rain
4:10 PM77.0 °F75.2 °F94 %29.83 in5.0 miNE (50°)26.5 mph33.4 mphRainLight Rain
4:12 PM77.0 °F75.2 °F94 %29.84 in7.0 miNE (40°)28.8 mph34.5 mphOvercast
4:13 PM77.0 °F75.2 °F94 %29.84 in7.0 miNE (40°)29.9 mph34.5 mphRainLight Rain
4:14 PM77.0 °F75.2 °F94 %29.84 in7.0 miNE (40°)26.5 mph34.5 mphOvercast
4:22 PM77.0 °F75.2 °F94 %29.84 in9.0 miNE (40°)24.2 mph34.5 mphOvercast
4:40 PM77.0 °F75.2 °F94 %29.84 in10.0 miNE (40°)26.5 mphMostly Cloudy
4:55 PM77.5 °F74.7 °F91 %29.85 in10.0 miNE (40°)24.2 mph29.9 mph0.00 inOvercast
5:12 PM77.0 °F73.4 °F89 %29.85 in5.0 miNE (50°)24.2 mph35.7 mphOvercast
5:13 PM77.0 °F73.4 °F89 %29.85 in5.0 miNE (50°)23.0 mph35.7 mphOvercast
5:14 PM77.0 °F73.4 °F89 %29.85 in5.0 miNE (40°)21.9 mph29.9 mphOvercast
5:15 PM77.0 °F73.4 °F89 %29.85 in7.0 miNE (40°)23.0 mph29.9 mphOvercast
5:16 PM77.0 °F73.4 °F89 %29.85 in9.0 miNE (40°)25.3 mph29.9 mphOvercast
5:17 PM77.0 °F73.4 °F89 %29.85 in10.0 miNE (40°)24.2 mph29.9 mphOvercast
5:20 PM77.0 °F73.4 °F89 %29.85 in10.0 miNE (40°)25.3 mph32.2 mphOvercast
5:21 PM77.0 °F73.4 °F89 %29.85 in10.0 miNE (40°)26.5 mph32.2 mphOvercast
5:22 PM77.0 °F75.2 °F94 %29.85 in10.0 miNE (40°)25.3 mph32.2 mphOvercast
5:29 PM77.0 °F75.2 °F94 %29.85 in8.0 miNE (40°)24.2 mph29.9 mphLight Drizzle
5:38 PM77.0 °F73.4 °F89 %29.85 in10.0 miNE (50°)24.2 mph29.9 mphOvercast
5:41 PM77.0 °F73.4 °F89 %29.85 in10.0 miNE (40°)23.0 mph29.9 mphOvercast
5:48 PM77.0 °F73.4 °F89 %29.86 in6.0 miNE (50°)25.3 mph34.5 mphOvercast
5:55 PM77.0 °F74.3 °F91 %29.86 in10.0 miNE (50°)24.2 mph32.2 mph0.01 inMostly Cloudy
5:59 PM77.0 °F75.2 °F94 %29.86 in10.0 miNE (50°)23.0 mph32.2 mphMostly Cloudy
6:06 PM77.0 °F73.4 °F89 %29.86 in10.0 miNE (50°)25.3 mph32.2 mphMostly Cloudy
6:15 PM77.0 °F73.4 °F89 %29.86 in10.0 miNE (40°)27.6 mph31.1 mphMostly Cloudy
6:32 PM77.0 °F73.4 °F89 %29.86 in10.0 miNE (40°)23.0 mph33.4 mphMostly Cloudy
6:39 PM77.0 °F73.4 °F89 %29.86 in10.0 miNE (40°)25.3 mph35.7 mphOvercast
6:47 PM77.0 °F75.2 °F94 %29.86 in10.0 miNE (50°)24.2 mph31.1 mphOvercast
6:52 PM77.0 °F75.2 °F94 %29.86 in10.0 miENE (60°)21.9 mph32.2 mphOvercast
6:55 PM77.2 °F74.7 °F92 %29.87 in9.0 miNE (40°)24.2 mph32.2 mphOvercast
7:01 PM77.0 °F75.2 °F94 %29.87 in9.0 miNE (40°)25.3 mph29.9 mphOvercast
7:11 PM77.0 °F75.2 °F94 %29.87 in10.0 miNE (50°)26.5 mph32.2 mphOvercast
7:18 PM77.0 °F75.2 °F94 %29.87 in9.0 miNE (50°)20.7 mph32.2 mphOvercast
7:24 PM77.0 °F75.2 °F94 %29.88 in5.0 miNE (40°)25.3 mph33.4 mphOvercast
7:28 PM77.0 °F75.2 °F94 %29.88 in3.0 miNE (50°)24.2 mph33.4 mphRainLight Rain
7:31 PM77.0 °F75.2 °F94 %29.88 in2.5 miNE (40°)25.3 mph32.2 mphOvercast
7:33 PM77.0 °F75.2 °F94 %29.88 in3.0 miNE (50°)26.5 mph32.2 mphRainLight Rain
7:38 PM75.2 °F73.4 °F94 %29.88 in4.0 miNE (50°)25.3 mph31.1 mphOvercast
7:40 PM75.2 °F73.4 °F94 %29.88 in6.0 miNE (50°)24.2 mph31.1 mphOvercast
7:46 PM77.0 °F75.2 °F94 %29.88 in10.0 miNE (40°)21.9 mph29.9 mphOvercast
7:47 PM77.0 °F75.2 °F94 %29.88 in10.0 miNE (40°)21.9 mph29.9 mphOvercast
7:48 PM77.0 °F75.2 °F94 %29.88 in10.0 miNE (40°)23.0 mph29.9 mphOvercast
7:49 PM77.0 °F75.2 °F94 %29.88 in10.0 miNE (40°)24.2 mphOvercast
7:55 PM76.6 °F74.8 °F94 %29.88 in10.0 miNE (40°)20.7 mph27.6 mph0.02 inOvercast
8:10 PM77.0 °F75.2 °F94 %29.89 in7.0 miNE (50°)31.1 mph39.1 mphOvercast
8:14 PM77.0 °F73.4 °F89 %29.89 in5.0 miNE (50°)25.3 mph39.1 mphLight Drizzle
8:17 PM75.2 °F73.4 °F94 %29.88 in5.0 miNE (50°)24.2 mph36.8 mphLight Drizzle
8:19 PM75.2 °F73.4 °F94 %29.89 in5.0 miNE (40°)24.2 mph36.8 mphLight Drizzle
8:20 PM75.2 °F73.4 °F94 %29.89 in6.0 miNE (40°)23.0 mph36.8 mphLight Drizzle
8:24 PM75.2 °F73.4 °F94 %29.89 in10.0 miNE (40°)20.7 mph29.9 mphOvercast
8:27 PM77.0 °F75.2 °F94 %29.89 in10.0 miNE (50°)24.2 mph29.9 mphOvercast
8:28 PM77.0 °F75.2 °F94 %29.89 in10.0 miNE (40°)24.2 mph29.9 mphOvercast
8:35 PM77.0 °F75.2 °F94 %29.88 in10.0 miNE (50°)24.2 mph28.8 mphOvercast
8:43 PM77.0 °F75.2 °F94 %29.89 in7.0 miNE (40°)25.3 mph33.4 mphRainLight Rain
8:51 PM77.0 °F75.2 °F94 %29.89 in3.0 miNE (50°)29.9 mph35.7 mphRainLight Rain
8:54 PM77.0 °F75.2 °F94 %29.89 in2.5 miNE (50°)26.5 mph35.7 mphRainLight Rain
8:55 PM76.3 °F74.3 °F94 %29.89 in2.5 miNE (50°)27.6 mph35.7 mph0.04 inRainLight Rain
9:00 PM75.2 °F73.4 °F94 %29.89 in3.0 miNE (50°)21.9 mph35.7 mphRainLight Rain
9:02 PM75.2 °F75.2 °F100 %29.89 in4.0 miNE (50°)21.9 mphOvercast
9:13 PM77.0 °F75.2 °F94 %29.89 in10.0 miNE (50°)25.3 mph31.1 mphOvercast
9:14 PM77.0 °F75.2 °F94 %29.89 in10.0 miNE (50°)25.3 mph31.1 mphOvercast
9:17 PM77.0 °F75.2 °F94 %29.90 in10.0 miNE (40°)23.0 mphOvercast
9:18 PM77.0 °F75.2 °F94 %29.90 in10.0 miNE (40°)25.3 mphOvercast
9:21 PM77.0 °F75.2 °F94 %29.89 in10.0 miNE (40°)23.0 mphOvercast
9:23 PM77.0 °F75.2 °F94 %29.90 in10.0 miNE (40°)21.9 mphOvercast
9:24 PM77.0 °F75.2 °F94 %29.90 in10.0 miNE (50°)21.9 mphOvercast
9:27 PM77.0 °F75.2 °F94 %29.89 in10.0 miNE (40°)24.2 mphOvercast
9:37 PM77.0 °F75.2 °F94 %29.90 in10.0 miNE (40°)23.0 mphOvercast
9:45 PM77.0 °F75.2 °F94 %29.90 in6.0 miNE (40°)27.6 mph38.0 mphRainLight Rain
9:55 PM76.1 °F74.3 °F94 %29.90 in7.0 miNE (40°)25.3 mph36.8 mph0.02 inOvercast
9:56 PM77.0 °F73.4 °F89 %29.90 in8.0 miNE (40°)26.5 mph36.8 mphOvercast
10:03 PM77.0 °F75.2 °F94 %29.90 in10.0 miNE (40°)24.2 mph32.2 mphOvercast
10:13 PM77.0 °F75.2 °F94 %29.90 in10.0 miNE (40°)26.5 mph32.2 mphOvercast
10:37 PM77.0 °F75.2 °F94 %29.89 in10.0 miNE (40°)26.5 mphOvercast
10:45 PM77.0 °F73.4 °F89 %29.89 in10.0 miNE (40°)24.2 mphOvercast
10:47 PM77.0 °F73.4 °F89 %29.89 in10.0 miNE (40°)26.5 mphOvercast
10:55 PM76.5 °F74.1 °F92 %29.89 in10.0 miNE (40°)24.2 mph31.1 mphOvercast
11:19 PM77.0 °F75.2 °F94 %29.89 in10.0 miNE (40°)26.5 mph31.1 mphLight Drizzle
11:23 PM77.0 °F75.2 °F94 %29.89 in8.0 miNNE (30°)25.3 mph34.5 mphLight Drizzle
11:27 PM77.0 °F73.4 °F89 %29.89 in4.0 miNE (50°)27.6 mph35.7 mphLight Drizzle
11:30 PM75.2 °F73.4 °F94 %29.90 in3.0 miNE (50°)25.3 mph35.7 mphRainLight Rain
11:32 PM75.2 °F73.4 °F94 %29.90 in2.5 miNE (50°)27.6 mph35.7 mphRainLight Rain
11:34 PM75.2 °F73.4 °F94 %29.90 in3.0 miNE (50°)27.6 mph35.7 mphRainLight Rain
11:37 PM75.2 °F73.4 °F94 %29.90 in3.0 miNE (50°)27.6 mph35.7 mphRainLight Rain
11:43 PM75.2 °F73.4 °F94 %29.90 in3.0 miNE (50°)26.5 mph35.7 mphRainLight Rain
11:44 PM75.2 °F73.4 °F94 %29.89 in3.0 miNE (50°)26.5 mph35.7 mphRainLight Rain
11:55 PM75.0 °F73.4 °F95 %29.89 in4.0 miNE (40°)28.8 mph32.2 mph0.06 inRainRain
11:58 PM75.2 °F73.4 °F94 %29.89 in3.0 miNE (40°)25.3 mph32.2 mphRainHeavy Rain
Hourly data recorded from PGUA, located miles away from Mangilao, Guam







STORIES FROM OUR PARTNERS